Location: Gleizolles
(44.4833°N, 6.7667°E)
Time: 20:45:11
(UTC+00:00)

A-11 Canister half - Pass Details

Date: 28 June 2024
Orbit: 1524 x 1684 km, 47.3° (Epoch: 18 July)

Event Time Altitude Azimuth Distance (km) Brightness Sun altitude
Rises 13:32:05 0° 272° (W) 4,737 11.9 58.2°
Reaches altitude 10° 13:35:12 10° 275° (W) 3,736 11.6 57.8°
Maximum altitude 13:44:38 75° 1° (N) 1,576 10.0 56.3°
Drops below altitude 10° 13:53:56 10° 87° (E) 3,691 10.8 54.8°
Sets 13:56:59 0° 89° (E) 4,677 11.2 54.3°
